Time,TemperatureF,DewpointF,PressureIn,WindDirection,WindDirectionDegrees,WindSpeedMPH,WindSpeedGustMPH,Humidity,HourlyPrecipIn,Conditions,Clouds,dailyrainin,SolarRadiationWatts/m^2,SoftwareType,DateUTC
2013-03-05 00:22:00,26.0,14.0,-100.00,North,-999,-999.0,7.0,58,0.00,,,-99.99,0.000000,,2013-03-05 07:22:00,
2013-03-05 00:32:00,27.0,13.0,-100.00,North,-999,-999.0,9.0,55,0.00,,,-99.99,0.000000,,2013-03-05 07:32:00,
2013-03-05 00:42:00,27.0,14.0,-100.00,North,-999,-999.0,9.0,56,0.00,,,-99.99,0.000000,,2013-03-05 07:42:00,
2013-03-05 00:52:00,28.0,12.0,-100.00,North,-999,-999.0,7.0,50,0.00,,,-99.99,0.000000,,2013-03-05 07:52:00,
2013-03-05 01:01:00,27.0,12.0,-100.00,North,-999,-999.0,4.0,52,0.00,,,-99.99,0.000000,,2013-03-05 08:01:00,
2013-03-05 01:11:00,27.0,13.0,-100.00,North,-999,-999.0,7.0,55,0.00,,,-99.99,0.000000,,2013-03-05 08:11:00,
2013-03-05 01:21:00,27.0,13.0,-100.00,North,-999,-999.0,7.0,55,0.00,,,-99.99,0.000000,,2013-03-05 08:21:00,
2013-03-05 01:31:00,27.0,13.0,-100.00,North,-999,-999.0,7.0,55,0.00,,,-99.99,0.000000,,2013-03-05 08:31:00,
2013-03-05 01:41:00,25.0,13.0,-100.00,North,-999,-999.0,7.0,61,0.00,,,-99.99,0.000000,,2013-03-05 08:41:00,
2013-03-05 01:51:00,24.0,14.0,-100.00,North,-999,-999.0,6.0,64,0.00,,,-99.99,0.000000,,2013-03-05 08:51:00,
2013-03-05 02:01:00,24.0,15.0,-100.00,North,-999,-999.0,5.0,69,0.00,,,-99.99,0.000000,,2013-03-05 09:01:00,
2013-03-05 02:11:00,23.0,15.0,-100.00,North,-999,-999.0,5.0,71,0.00,,,-99.99,0.000000,,2013-03-05 09:11:00,
2013-03-05 02:21:00,23.0,15.0,-100.00,North,-999,-999.0,5.0,69,0.00,,,-99.99,0.000000,,2013-03-05 09:21:00,
2013-03-05 02:31:00,24.0,14.0,-100.00,North,-999,-999.0,4.0,63,0.00,,,-99.99,0.000000,,2013-03-05 09:31:00,
2013-03-05 02:42:00,24.0,15.0,-100.00,North,-999,-999.0,3.0,68,0.00,,,-99.99,0.000000,,2013-03-05 09:42:00,
2013-03-05 02:51:00,22.0,15.0,-100.00,North,-999,-999.0,3.0,72,0.00,,,-99.99,0.000000,,2013-03-05 09:51:00,
2013-03-05 03:01:00,22.0,14.0,-100.00,North,-999,-999.0,3.0,70,0.00,,,-99.99,0.000000,,2013-03-05 10:01:00,
2013-03-05 03:11:00,21.0,14.0,-100.00,North,-999,-999.0,3.0,73,0.00,,,-99.99,0.000000,,2013-03-05 10:11:00,
2013-03-05 03:21:00,22.0,13.0,-100.00,North,-999,-999.0,4.0,69,0.00,,,-99.99,0.000000,,2013-03-05 10:21:00,
2013-03-05 03:32:00,21.0,14.0,-100.00,North,-999,-999.0,3.0,73,0.00,,,-99.99,0.000000,,2013-03-05 10:32:00,
2013-03-05 03:41:00,20.0,13.0,-100.00,North,-999,-999.0,4.0,75,0.00,,,-99.99,0.000000,,2013-03-05 10:41:00,
2013-03-05 03:50:00,23.0,12.0,-100.00,North,-999,-999.0,6.0,63,0.00,,,-99.99,0.000000,,2013-03-05 10:50:00,
2013-03-05 03:51:00,21.0,14.0,-100.00,North,-999,-999.0,4.0,74,0.00,,,-99.99,0.000000,,2013-03-05 10:51:00,
2013-03-05 04:01:00,22.0,14.0,-100.00,North,-999,-999.0,5.0,69,0.00,,,-99.99,0.000000,,2013-03-05 11:01:00,
2013-03-05 04:11:00,23.0,12.0,-100.00,North,-999,-999.0,6.0,63,0.00,,,-99.99,0.000000,,2013-03-05 11:11:00,
2013-03-05 04:21:00,23.0,12.0,-100.00,North,-999,-999.0,6.0,63,0.00,,,-99.99,0.000000,,2013-03-05 11:21:00,
2013-03-05 04:32:00,23.0,12.0,-100.00,North,-999,-999.0,6.0,63,0.00,,,-99.99,0.000000,,2013-03-05 11:32:00,
2013-03-05 04:41:00,23.0,12.0,-100.00,North,-999,-999.0,6.0,63,0.00,,,-99.99,0.000000,,2013-03-05 11:41:00,
2013-03-05 05:22:00,23.0,12.0,-100.00,North,-999,-999.0,8.0,64,0.00,,,-99.99,0.000000,,2013-03-05 12:22:00,
2013-03-05 05:32:00,23.0,14.0,-100.00,North,-999,-999.0,5.0,67,0.00,,,-99.99,0.000000,,2013-03-05 12:32:00,
2013-03-05 05:42:00,23.0,14.0,-100.00,North,-999,-999.0,4.0,68,0.00,,,-99.99,0.000000,,2013-03-05 12:42:00,
2013-03-05 05:52:00,22.0,14.0,-100.00,North,-999,-999.0,3.0,70,0.00,,,-99.99,0.000000,,2013-03-05 12:52:00,
2013-03-05 06:01:00,21.0,14.0,-100.00,North,-999,-999.0,4.0,73,0.00,,,-99.99,0.000000,,2013-03-05 13:01:00,
2013-03-05 06:11:00,20.0,14.0,-100.00,North,-999,-999.0,4.0,75,0.00,,,-99.99,0.000000,,2013-03-05 13:11:00,
2013-03-05 06:21:00,19.0,14.0,-100.00,North,-999,-999.0,2.0,78,0.00,,,-99.99,0.000000,,2013-03-05 13:21:00,
2013-03-05 06:31:00,19.0,13.0,-100.00,North,-999,-999.0,4.0,77,0.00,,,-99.99,0.000000,,2013-03-05 13:31:00,
2013-03-05 06:42:00,19.0,13.0,-100.00,North,-999,-999.0,2.0,77,0.00,,,-99.99,0.000000,,2013-03-05 13:42:00,
2013-03-05 06:51:00,20.0,14.0,-100.00,North,-999,-999.0,4.0,79,0.00,,,-99.99,0.000000,,2013-03-05 13:51:00,
2013-03-05 07:02:00,23.0,15.0,-100.00,North,-999,-999.0,5.0,71,0.00,,,-99.99,1.000000,,2013-03-05 14:02:00,
2013-03-05 07:11:00,22.0,14.0,-100.00,North,-999,-999.0,4.0,72,0.00,,,-99.99,3.000000,,2013-03-05 14:11:00,
2013-03-05 07:21:00,25.0,13.0,-100.00,North,-999,-999.0,9.0,61,0.00,,,-99.99,10.000000,,2013-03-05 14:21:00,
2013-03-05 07:31:00,23.0,14.0,-100.00,North,-999,-999.0,6.0,69,0.00,,,-99.99,19.000000,,2013-03-05 14:31:00,
2013-03-05 07:41:00,23.0,15.0,-100.00,North,-999,-999.0,4.0,71,0.00,,,-99.99,28.000000,,2013-03-05 14:41:00,
2013-03-05 07:52:00,23.0,14.0,-100.00,North,-999,-999.0,4.0,68,0.00,,,-99.99,36.000000,,2013-03-05 14:52:00,
2013-03-05 08:01:00,23.0,15.0,-100.00,North,-999,-999.0,5.0,69,0.00,,,-99.99,118.000000,,2013-03-05 15:01:00,
2013-03-05 08:11:00,25.0,15.0,-100.00,North,-999,-999.0,4.0,64,0.00,,,-99.99,152.000000,,2013-03-05 15:11:00,
2013-03-05 08:21:00,25.0,16.0,-100.00,North,-999,-999.0,5.0,68,0.00,,,-99.99,188.000000,,2013-03-05 15:21:00,
2013-03-05 08:31:00,26.0,16.0,-100.00,North,-999,-999.0,4.0,67,0.00,,,-99.99,223.000000,,2013-03-05 15:31:00,
2013-03-05 08:42:00,27.0,17.0,-100.00,North,-999,-999.0,4.0,65,0.00,,,-99.99,264.000000,,2013-03-05 15:42:00,
2013-03-05 08:50:00,29.0,17.0,-100.00,North,-999,-999.0,6.0,62,0.00,,,-99.99,380.000000,,2013-03-05 15:50:00,
2013-03-05 08:51:00,27.0,17.0,-100.00,North,-999,-999.0,10.0,63,0.00,,,-99.99,303.000000,,2013-03-05 15:51:00,
2013-03-05 09:01:00,28.0,18.0,-100.00,North,-999,-999.0,6.0,64,0.00,,,-99.99,341.000000,,2013-03-05 16:01:00,
2013-03-05 09:11:00,29.0,17.0,-100.00,North,-999,-999.0,6.0,62,0.00,,,-99.99,380.000000,,2013-03-05 16:11:00,
2013-03-05 09:21:00,29.0,17.0,-100.00,North,-999,-999.0,6.0,62,0.00,,,-99.99,380.000000,,2013-03-05 16:21:00,
2013-03-05 09:31:00,29.0,17.0,-100.00,North,-999,-999.0,6.0,62,0.00,,,-99.99,380.000000,,2013-03-05 16:31:00,
2013-03-05 09:41:00,29.0,17.0,-100.00,North,-999,-999.0,6.0,62,0.00,,,-99.99,380.000000,,2013-03-05 16:41:00,
2013-03-05 10:22:00,36.0,18.0,-100.00,North,-999,-999.0,6.0,47,0.00,,,-99.99,623.000000,,2013-03-05 17:22:00,
2013-03-05 10:32:00,37.0,18.0,-100.00,North,-999,-999.0,9.0,46,0.00,,,-99.99,654.000000,,2013-03-05 17:32:00,
2013-03-05 10:42:00,36.0,15.0,-100.00,North,-999,-999.0,11.0,42,0.00,,,-99.99,682.000000,,2013-03-05 17:42:00,
2013-03-05 10:52:00,37.0,16.0,-100.00,North,-999,-999.0,10.0,43,0.00,,,-99.99,706.000000,,2013-03-05 17:52:00,
2013-03-05 11:01:00,38.0,16.0,-100.00,North,-999,-999.0,9.0,39,0.00,,,-99.99,733.000000,,2013-03-05 18:01:00,
2013-03-05 11:11:00,38.0,16.0,-100.00,North,-999,-999.0,9.0,39,0.00,,,-99.99,733.000000,,2013-03-05 18:11:00,
2013-03-05 11:21:00,41.0,16.0,-100.00,North,-999,-999.0,4.0,35,0.00,,,-99.99,774.000000,,2013-03-05 18:21:00,
2013-03-05 11:31:00,41.0,19.0,-100.00,North,-999,-999.0,7.0,40,0.00,,,-99.99,792.000000,,2013-03-05 18:31:00,
2013-03-05 11:41:00,44.0,12.0,-100.00,North,-999,-999.0,7.0,27,0.00,,,-99.99,811.000000,,2013-03-05 18:41:00,
2013-03-05 11:52:00,43.0,14.0,-100.00,North,-999,-999.0,9.0,30,0.00,,,-99.99,826.000000,,2013-03-05 18:52:00,
2013-03-05 12:01:00,44.0,16.0,-100.00,North,-999,-999.0,8.0,32,0.00,,,-99.99,836.000000,,2013-03-05 19:01:00,
2013-03-05 12:11:00,44.0,13.0,-100.00,North,-999,-999.0,8.0,28,0.00,,,-99.99,840.000000,,2013-03-05 19:11:00,
2013-03-05 12:21:00,44.0,13.0,-100.00,North,-999,-999.0,9.0,28,0.00,,,-99.99,870.000000,,2013-03-05 19:21:00,
2013-03-05 12:31:00,45.0,15.0,-100.00,North,-999,-999.0,10.0,29,0.00,,,-99.99,871.000000,,2013-03-05 19:31:00,
2013-03-05 12:41:00,46.0,19.0,-100.00,North,-999,-999.0,9.0,33,0.00,,,-99.99,878.000000,,2013-03-05 19:41:00,
2013-03-05 12:51:00,47.0,14.0,-100.00,North,-999,-999.0,9.0,27,0.00,,,-99.99,875.000000,,2013-03-05 19:51:00,
2013-03-05 13:01:00,48.0,17.0,-100.00,North,-999,-999.0,8.0,29,0.00,,,-99.99,874.000000,,2013-03-05 20:01:00,
2013-03-05 13:11:00,49.0,14.0,-100.00,North,-999,-999.0,11.0,25,0.00,,,-99.99,851.000000,,2013-03-05 20:11:00,
2013-03-05 13:21:00,49.0,17.0,-100.00,North,-999,-999.0,10.0,27,0.00,,,-99.99,864.000000,,2013-03-05 20:21:00,
2013-03-05 13:32:00,49.0,20.0,-100.00,North,-999,-999.0,9.0,31,0.00,,,-99.99,793.000000,,2013-03-05 20:32:00,
2013-03-05 13:41:00,50.0,15.0,-100.00,North,-999,-999.0,11.0,24,0.00,,,-99.99,874.000000,,2013-03-05 20:41:00,
2013-03-05 13:50:00,51.0,17.0,-100.00,North,-999,-999.0,13.0,25,0.00,,,-99.99,489.000000,,2013-03-05 20:50:00,
2013-03-05 13:52:00,50.0,18.0,-100.00,North,-999,-999.0,13.0,27,0.00,,,-99.99,730.000000,,2013-03-05 20:52:00,
2013-03-05 14:01:00,51.0,16.0,-100.00,North,-999,-999.0,13.0,25,0.00,,,-99.99,559.000000,,2013-03-05 21:01:00,
2013-03-05 14:11:00,51.0,17.0,-100.00,North,-999,-999.0,13.0,25,0.00,,,-99.99,489.000000,,2013-03-05 21:11:00,
2013-03-05 14:21:00,51.0,17.0,-100.00,North,-999,-999.0,13.0,25,0.00,,,-99.99,489.000000,,2013-03-05 21:21:00,
2013-03-05 14:31:00,51.0,17.0,-100.00,North,-999,-999.0,13.0,25,0.00,,,-99.99,489.000000,,2013-03-05 21:31:00,
2013-03-05 14:41:00,51.0,17.0,-100.00,North,-999,-999.0,13.0,25,0.00,,,-99.99,489.000000,,2013-03-05 21:41:00,
2013-03-05 15:22:00,53.0,21.0,-100.00,North,-999,-999.0,13.0,28,0.00,,,-99.99,447.000000,,2013-03-05 22:22:00,
2013-03-05 15:32:00,52.0,18.0,-100.00,North,-999,-999.0,15.0,26,0.00,,,-99.99,539.000000,,2013-03-05 22:32:00,
2013-03-05 15:42:00,52.0,19.0,-100.00,North,-999,-999.0,14.0,27,0.00,,,-99.99,449.000000,,2013-03-05 22:42:00,
2013-03-05 15:52:00,52.0,19.0,-100.00,North,-999,-999.0,13.0,27,0.00,,,-99.99,385.000000,,2013-03-05 22:52:00,
2013-03-05 16:01:00,53.0,20.0,-100.00,North,-999,-999.0,12.0,28,0.00,,,-99.99,491.000000,,2013-03-05 23:01:00,
2013-03-05 16:11:00,53.0,17.0,-100.00,North,-999,-999.0,12.0,24,0.00,,,-99.99,397.000000,,2013-03-05 23:11:00,
2013-03-05 16:21:00,54.0,20.0,-100.00,North,-999,-999.0,11.0,26,0.00,,,-99.99,538.000000,,2013-03-05 23:21:00,
2013-03-05 16:32:00,53.0,20.0,-100.00,North,-999,-999.0,11.0,27,0.00,,,-99.99,440.000000,,2013-03-05 23:32:00,
2013-03-05 16:41:00,54.0,20.0,-100.00,North,-999,-999.0,10.0,26,0.00,,,-99.99,364.000000,,2013-03-05 23:41:00,
2013-03-05 16:52:00,55.0,21.0,-100.00,North,-999,-999.0,9.0,27,0.00,,,-99.99,280.000000,,2013-03-05 23:52:00,
2013-03-05 17:01:00,56.0,20.0,-100.00,North,-999,-999.0,8.0,25,0.00,,,-99.99,357.000000,,2013-03-06 00:01:00,
2013-03-05 17:11:00,54.0,20.0,-100.00,North,-999,-999.0,7.0,26,0.00,,,-99.99,234.000000,,2013-03-06 00:11:00,
2013-03-05 17:21:00,53.0,20.0,-100.00,North,-999,-999.0,7.0,27,0.00,,,-99.99,242.000000,,2013-03-06 00:21:00,
2013-03-05 17:32:00,52.0,24.0,-100.00,North,-999,-999.0,6.0,33,0.00,,,-99.99,116.000000,,2013-03-06 00:32:00,
2013-03-05 17:41:00,50.0,24.0,-100.00,North,-999,-999.0,7.0,36,0.00,,,-99.99,140.000000,,2013-03-06 00:41:00,
2013-03-05 17:51:00,51.0,24.0,-100.00,North,-999,-999.0,5.0,34,0.00,,,-99.99,193.000000,,2013-03-06 00:51:00,
2013-03-05 18:01:00,50.0,22.0,-100.00,North,-999,-999.0,6.0,32,0.00,,,-99.99,98.000000,,2013-03-06 01:01:00,
2013-03-05 18:11:00,49.0,22.0,-100.00,North,-999,-999.0,8.0,35,0.00,,,-99.99,51.000000,,2013-03-06 01:11:00,
2013-03-05 18:21:00,48.0,23.0,-100.00,North,-999,-999.0,7.0,37,0.00,,,-99.99,56.000000,,2013-03-06 01:21:00,
2013-03-05 18:31:00,48.0,23.0,-100.00,North,-999,-999.0,7.0,37,0.00,,,-99.99,56.000000,,2013-03-06 01:31:00,
2013-03-05 18:41:00,46.0,23.0,-100.00,North,-999,-999.0,7.0,39,0.00,,,-99.99,7.000000,,2013-03-06 01:41:00,
2013-03-05 18:50:00,45.0,22.0,-100.00,North,-999,-999.0,7.0,40,0.00,,,-99.99,0.000000,,2013-03-06 01:50:00,
2013-03-05 18:51:00,45.0,22.0,-100.00,North,-999,-999.0,6.0,40,0.00,,,-99.99,2.000000,,2013-03-06 01:51:00,
2013-03-05 19:01:00,45.0,22.0,-100.00,North,-999,-999.0,7.0,40,0.00,,,-99.99,0.000000,,2013-03-06 02:01:00,
2013-03-05 19:11:00,45.0,22.0,-100.00,North,-999,-999.0,7.0,40,0.00,,,-99.99,0.000000,,2013-03-06 02:11:00,
2013-03-05 19:21:00,45.0,22.0,-100.00,North,-999,-999.0,7.0,40,0.00,,,-99.99,0.000000,,2013-03-06 02:21:00,
2013-03-05 19:31:00,45.0,22.0,-100.00,North,-999,-999.0,7.0,40,0.00,,,-99.99,0.000000,,2013-03-06 02:31:00,
2013-03-05 19:41:00,45.0,22.0,-100.00,North,-999,-999.0,7.0,40,0.00,,,-99.99,0.000000,,2013-03-06 02:41:00,
2013-03-05 20:22:00,40.0,23.0,-100.00,North,-999,-999.0,5.0,50,0.00,,,-99.99,0.000000,,2013-03-06 03:22:00,
2013-03-05 20:32:00,39.0,23.0,-100.00,North,-999,-999.0,4.0,53,0.00,,,-99.99,0.000000,,2013-03-06 03:32:00,
2013-03-05 20:42:00,39.0,23.0,-100.00,North,-999,-999.0,5.0,53,0.00,,,-99.99,0.000000,,2013-03-06 03:42:00,
2013-03-05 20:52:00,37.0,22.0,-100.00,North,-999,-999.0,4.0,55,0.00,,,-99.99,0.000000,,2013-03-06 03:52:00,
2013-03-05 21:01:00,38.0,22.0,-100.00,North,-999,-999.0,4.0,52,0.00,,,-99.99,0.000000,,2013-03-06 04:01:00,
2013-03-05 21:11:00,39.0,22.0,-100.00,North,-999,-999.0,3.0,50,0.00,,,-99.99,0.000000,,2013-03-06 04:11:00,
2013-03-05 21:21:00,42.0,20.0,-100.00,North,-999,-999.0,6.0,40,0.00,,,-99.99,0.000000,,2013-03-06 04:21:00,
2013-03-05 21:31:00,44.0,20.0,-100.00,North,-999,-999.0,7.0,38,0.00,,,-99.99,0.000000,,2013-03-06 04:31:00,
2013-03-05 21:41:00,44.0,20.0,-100.00,North,-999,-999.0,8.0,37,0.00,,,-99.99,0.000000,,2013-03-06 04:41:00,
2013-03-05 21:51:00,44.0,20.0,-100.00,North,-999,-999.0,10.0,37,0.00,,,-99.99,0.000000,,2013-03-06 04:51:00,
2013-03-05 22:01:00,44.0,21.0,-100.00,North,-999,-999.0,13.0,39,0.00,,,-99.99,0.000000,,2013-03-06 05:01:00,
2013-03-05 22:11:00,44.0,20.0,-100.00,North,-999,-999.0,12.0,37,0.00,,,-99.99,0.000000,,2013-03-06 05:11:00,
2013-03-05 22:22:00,44.0,19.0,-100.00,North,-999,-999.0,12.0,36,0.00,,,-99.99,0.000000,,2013-03-06 05:22:00,
2013-03-05 22:32:00,44.0,18.0,-100.00,North,-999,-999.0,12.0,34,0.00,,,-99.99,0.000000,,2013-03-06 05:32:00,
2013-03-05 22:42:00,44.0,19.0,-100.00,North,-999,-999.0,10.0,36,0.00,,,-99.99,0.000000,,2013-03-06 05:42:00,
2013-03-05 22:52:00,44.0,19.0,-100.00,North,-999,-999.0,10.0,36,0.00,,,-99.99,0.000000,,2013-03-06 05:52:00,
2013-03-05 23:01:00,40.0,21.0,-100.00,North,-999,-999.0,7.0,47,0.00,,,-99.99,0.000000,,2013-03-06 06:01:00,
2013-03-05 23:11:00,39.0,21.0,-100.00,North,-999,-999.0,6.0,49,0.00,,,-99.99,0.000000,,2013-03-06 06:11:00,
2013-03-05 23:21:00,38.0,20.0,-100.00,North,-999,-999.0,6.0,48,0.00,,,-99.99,0.000000,,2013-03-06 06:21:00,
2013-03-05 23:31:00,36.0,22.0,-100.00,North,-999,-999.0,6.0,57,0.00,,,-99.99,0.000000,,2013-03-06 06:31:00,
2013-03-05 23:41:00,36.0,22.0,-100.00,North,-999,-999.0,5.0,56,0.00,,,-99.99,0.000000,,2013-03-06 06:41:00,
2013-03-05 23:50:00,36.0,22.0,-100.00,North,-999,-999.0,5.0,57,0.00,,,-99.99,0.000000,,2013-03-06 06:50:00,
2013-03-05 23:52:00,37.0,22.0,-100.00,North,-999,-999.0,4.0,54,0.00,,,-99.99,0.000000,,2013-03-06 06:52:00,